This demonstration page uses our WeatherBlox Daily Observations layout. Learn more.

39.29038, -76.61219

Hourly Observations for June 29, 2019

Temp ( °F °C ) Dew Point ( °F °C ) Humidity (%) Winds ( mph kmh ) Pressure ( in mb ) Visibility ( mi km ) Precip ( " mm )
12:54 am 00:54 undefined 81 27.2 67 19.4 62 62 undefined N/A 30.09 1019 N/A 0 0
1:54 am 01:54 undefined 81 27.2 66 18.9 61 61 undefined N/A 30.06 1018 N/A 0 0
2:54 am 02:54 undefined 79 26.1 66 18.9 65 65 undefined N/A 30.06 1018 N/A 0 0
3:54 am 03:54 undefined 79 26.1 66 18.9 65 65 undefined N/A 30.06 1018 N/A 0 0
4:54 am 04:54 undefined 78 25.6 65 18.3 64 64 undefined N/A 30.06 1018 N/A 0 0
5:54 am 05:54 undefined 76 24.4 67 19.4 74 74 undefined N/A 30.06 1018 N/A 0 0
6:54 am 06:54 undefined 78 25.6 66 18.9 67 67 undefined N/A 30.06 1018 N/A 0 0
7:54 am 07:54 undefined 82 27.8 67 19.4 60 60 undefined N/A 30.06 1018 N/A 0 0
8:54 am 08:54 undefined 87 30.6 68 20 53 53 undefined N/A 30.06 1018 N/A 0 0
9:54 am 09:54 undefined 90 32.2 69 20.6 50 50 undefined N/A 30.06 1018 N/A 0 0
10:54 am 10:54 undefined 91 32.8 69 20.6 49 49 undefined N/A 30.03 1017 N/A 0 0
11:54 am 11:54 undefined 94 34.4 69 20.6 44 44 undefined N/A 30.03 1017 N/A 0 0
12:54 pm 12:54 undefined 95 35 68 20 41 41 undefined N/A 30 1016 N/A 0 0
1:54 pm 13:54 undefined 96 35.6 66 18.9 37 37 undefined N/A 29.97 1015 N/A 0 0
2:54 pm 14:54 undefined 95 35 65 18.3 37 37 undefined N/A 29.94 1014 N/A 0 0
3:54 pm 15:54 undefined 95 35 63 17.2 35 35 undefined N/A 29.94 1014 N/A 0 0
4:54 pm 16:54 undefined 83 28.3 64 17.8 53 53 undefined N/A 29.97 1015 N/A 0.04 1.016
5:54 pm 17:54 undefined 83 28.3 67 19.4 59 59 undefined N/A 29.91 1013 N/A 0 0
6:54 pm 18:54 undefined 81 27.2 70 21.1 69 69 undefined N/A 29.94 1014 N/A 0 0
7:54 pm 19:54 undefined 80 26.7 67 19.4 64 64 undefined N/A 29.97 1015 N/A 0 0
8:54 pm 20:54 undefined 80 26.7 68 20 67 67 undefined N/A 29.94 1014 N/A 0 0
9:54 pm 21:54 undefined 81 27.2 69 20.6 67 67 undefined N/A 29.94 1014 N/A 0 0
10:54 pm 22:54 undefined 76 24.4 69 20.6 79 79 undefined N/A 29.94 1014 N/A 0.15 3.81
11:54 pm 23:54 undefined 78 25.6 71 21.7 79 79 undefined N/A 29.94 1014 N/A 0.03 0.762

Powered by AerisWeather